Regional Weather Roundup
Issued by NWS Binghamton, NY

Home | Current Version | Previous Version | Text Only | Print | Product List | Glossary On
Versions: 1 2 3 4 5 6 7 8 9 10 11 12 13 14 15 16 17 18 19 20 21 22 23 24 25 26 27
000
ASUS41 KBGM 101910
RWRBGM

REGIONAL WEATHER ROUNDUP
NATIONAL WEATHER SERVICE BINGHAMTON NY
300 PM EDT MON MAY 10 2021

Note: "fair" indicates few or no clouds below 12,000 feet with no
significant weather and/or obstructions to visibility.

* = Station(s) that does not report precipitation, such as rain,
snow, etc, also no thunder or fog.

NYZ009-015>018-022>025-036-037-044>046-055>057-062-102000
...Central New York...

CITY           SKY/WX    TMP DP  RH WIND       PRES   REMARKS
Binghamton     PTSUNNY   51  37  58 N12       29.93F
Cortland       PTSUNNY   54  34  47 W9        29.94F
Dansville      CLOUDY    51  28  41 W12G20    29.97S
Elmira         CLOUDY    56  39  53 W9        29.94F
Endicott       MOCLDY    54  36  50 N6        29.93F
Ithaca         PTSUNNY   56  35  45 NW8       29.94F
Hamilton       CLOUDY    50  37  62 NW5       29.95S
Monticello     CLOUDY    47  41  80 NW9       29.93R
Norwich        CLOUDY    50  39  66 NW9       29.95S
Oneonta        MOSUNNY   48  39  71 NW7       29.92F
Penn Yan       CLOUDY    55  31  39 W12       29.95F
Rome           CLOUDY    54  42  64 W7        29.95S
Seneca Falls   CLOUDY    57  30  35 W13       29.96S
Sidney         PTSUNNY   54  43  66 W10G17    29.94F
Skaneateles    CLOUDY    57  37  47 W13G24    29.94F
Syracuse       PTSUNNY   57  36  45 W6        29.95F
$$

PAZ038>040-043-044-047-048-072-102000
...Northeast Pennsylvania...

CITY           SKY/WX    TMP DP  RH WIND       PRES   REMARKS
Hazleton       CLOUDY    50  37  62 CALM      29.97S
Scranton       CLOUDY    56  41  57 N7        29.95S
Towanda        PTCLDY    57  34  41 W9        29.97F
$$
&&
KEY
WCI = Wind Chill Index
VSB = Visibility
HX  = Heat Index
$$



USA.gov is the U.S. government's official web portal to all federal, state and local government web resources and services.